Location: Walnut Street Observatory
(41.0583°N, 76.2295°W)
Time: 15:11:39
(UTC-04:00)

Daily predictions for brighter satellites

Satellite Brightness Start Highest point End
(mag) Time Altitude Azimuth Time Altitude Azimuth Time Altitude Azimuth
SJ-6B 3.8 20:15:07 10° S 20:18:57 53° W 20:22:54 10° NNW
Cosmos 1892 2.6 20:15:48 10° N 20:19:36 73° E 20:23:23 10° SSE
Cosmos 1110 Rocket 4.4 20:15:11 10° SSW 20:20:26 72° WNW 20:25:45 10° NNE
Cosmos 2263 Rocket 3.7 20:17:45 10° N 20:21:50 20° NE 20:25:53 10° E
Cosmos 1400 Rocket 2.8 20:17:55 10° N 20:21:50 89° ENE 20:25:46 10° S
GRACE-1 4.4 20:21:26 10° NNE 20:24:03 38° E 20:26:38 10° SSE
GRACE-2 4.4 20:21:50 10° NNE 20:24:26 38° E 20:27:00 10° SSE
CZ-4B DEB 4.4 20:22:38 10° ESE 20:24:44 18° ENE 20:26:52 10° NNE
Cosmos 2322 Rocket 2.9 20:22:26 10° SSE 20:27:15 30° ESE 20:32:06 10° NE
Meteor 1-29 4.3 20:25:13 10° NE 20:27:56 21° E 20:30:35 10° SE
H-2A R/B 3.0 20:25:32 10° S 20:29:26 74° W 20:33:19 10° NNW
Meteor 2-3 Rocket 4.1 20:25:21 10° NNW 20:31:02 73° W 20:36:46 10° S
Envisat 3.7 20:26:56 10° SE 20:31:33 37° ENE 20:36:12 10° N
Cosmos 1302 Rocket 3.9 20:26:30 10° S 20:31:40 73° ESE 20:36:51 10° NNE
Cosmos 1315 Rocket 2.8 20:31:21 10° N 20:35:26 67° E 20:39:26 10° SSE
Cosmos 2360 Rocket 3.8 20:35:21 10° SE 20:38:05 14° E 20:40:49 10° ENE
Cosmos 1980 Rocket 2.5 20:32:38 10° SSW 20:38:18 77° WNW 20:44:02 10° NNE
USA 234 3.5 20:35:42 10° ESE 20:42:08 63° NE 20:48:35 10° NW
Cosmos 2026 Rocket 4.3 20:36:50 10° N 20:42:51 48° ENE 20:48:44 10° SSE
Intercosmos 25 Rocket 3.7 20:44:02 10° SSE 20:46:54 33° E 20:50:19 10° NNE
OTV 4 3.1 20:46:27 10° SW 20:47:02 10° SSW 20:47:37 10° SSW
Cosmos 1825 2.7 20:45:39 10° N 20:49:14 38° ENE 20:52:20 13° SE
CZ-2D R/B 3.8 20:45:59 10° S 20:49:50 63° WSW 20:53:43 10° NNW
SL-16 R/B 2.3 20:49:18 10° S 20:54:46 51° ESE 21:00:15 10° NNE
ATLAS 5 CENTAUR R/B 3.5 20:56:37 10° NNW 21:01:48 30° NE 21:06:11 15° E
Cosmos 1634 Rocket 4.0 20:55:50 10° S 21:02:07 89° ESE 21:08:29 10° N
Cosmos 1862 3.9 20:58:19 10° N 21:02:07 38° ENE 21:04:34 19° SE
Cosmos 1092 Rocket 4.4 20:57:22 10° NNW 21:03:41 70° W 21:09:58 10° S
Cosmos 1707 Rocket 4.3 20:59:56 10° SSW 21:04:18 57° W 21:08:40 10° N
Helios 1B rocket 2.3 21:00:14 10° NNE 21:04:21 82° ESE 21:08:27 10° SSW
ERS-1 Rocket 3.7 21:02:10 17° SE 21:05:26 37° ENE 21:10:01 10° N
Lacrosse 4 Rocket 1.6 21:01:39 10° NNW 21:05:55 60° ENE 21:08:46 21° SE
USA 186 2.7 21:03:27 10° S 21:05:59 39° W 21:08:42 10° NNW
Cosmos 1655 Rocket 4.1 21:03:20 10° N 21:09:42 63° E 21:15:36 12° SSE
ERBS 2.4 21:07:26 10° NW 21:10:53 75° SW 21:12:44 25° SE
Cosmos 1733 Rocket 3.2 21:06:51 10° N 21:11:14 54° E 21:14:14 19° SSE
SAR-Lupe-4 3.8 21:07:59 10° S 21:11:33 70° WSW 21:15:08 10° NNW
Cosmos 1939 Rocket 2.8 21:08:25 15° SSE 21:11:45 73° ENE 21:15:46 10° N
Meteor 2-20 Rocket 4.4 21:05:38 10° N 21:11:47 85° E 21:17:55 10° S
CENTAUR R/B 4.5 21:08:00 10° WSW 21:13:32 32° NW 21:19:43 10° NNE
ARGOS 4.4 21:11:28 18° ESE 21:13:53 25° ENE 21:18:10 10° NNE
Cosmos 1862 Rocket 3.7 21:13:02 10° S 21:17:22 56° E 21:21:46 10° NNE
SeaSat 1 3.7 21:17:14 19° E 21:19:36 28° NE 21:23:45 10° N
USA 229 DEB 4.4 21:16:36 10° SSE 21:22:15 29° ESE 21:27:57 10° NE
USA 229 4.4 21:16:43 10° SSE 21:22:20 28° ESE 21:28:01 10° NE
Cosmos 1992 Rocket 3.9 21:19:07 10° S 21:24:18 69° ESE 21:29:32 10° NNE
Cosmos 1408 2.9 21:21:03 10° NNW 21:24:43 67° W 21:27:28 17° S
ORS 1 (USA 231) 4.4 21:22:38 10° W 21:25:43 74° S 21:26:23 49° ESE
Atlas Centaur 2 3.7 21:22:32 10° SW 21:28:42 30° SSE 21:31:32 24° SE
Terra 4.0 21:31:11 11° ENE 21:31:53 11° ENE 21:33:15 10° NE
Abrixas rocket 4.0 21:30:08 10° W 21:33:05 30° NNW 21:35:56 11° NE
Cosmos 2242 Rocket 4.3 21:31:26 10° SSW 21:35:52 54° W 21:40:17 10° N
Cosmos 1703 Rocket 4.2 21:37:04 34° E 21:37:24 34° E 21:41:26 10° NNE
Cosmos 2279 Rocket 4.2 21:37:10 10° SSW 21:43:24 75° W 21:49:39 10° N
MetOp-A 4.1 21:47:17 35° SE 21:49:30 68° ENE 21:54:50 10° N
Cosmos 1867 4.0 21:45:04 10° NNW 21:50:22 49° NE 21:52:05 36° E
Cosmos 489 Rocket 4.5 21:46:22 10° NNW 21:52:43 70° ENE 21:55:23 36° SE
H-2A R/B 2.8 21:52:49 31° E 21:53:31 32° ENE 21:57:53 10° N
Meteor 1-14 Rocket 4.4 21:48:32 10° N 21:54:04 54° ENE 21:55:46 40° SE
OAO 3 Rocket 3.7 21:51:44 10° WSW 21:56:22 41° S 21:56:38 41° S
YAOGAN 6 3.4 21:56:56 35° SSW 21:58:04 48° W 22:01:37 10° NNW
SPOT 5 2.8 22:04:10 54° SE 22:05:09 72° ENE 22:09:51 10° N
Cosmos 968 Rocket 3.4 22:00:29 10° NNW 22:05:41 75° ENE 22:06:50 54° SE
Cosmos 2263 Rocket 2.4 22:00:43 10° NNW 22:06:14 64° WSW 22:08:25 36° S
COSMOS 2428 3.5 22:10:12 34° E 22:10:12 34° E 22:14:21 10° NE
Meteor 1-25 Rocket 4.3 22:04:29 10° N 22:09:58 54° ENE 22:10:48 49° ESE
Meteor 2-10 Rocket 3.9 22:05:36 18° SSW 22:10:03 77° W 22:15:54 10° N
Cosmos 2322 Rocket 3.6 22:05:58 10° SW 22:11:08 38° WNW 22:16:23 10° N
Sich 1 Rocket 3.8 22:11:15 10° NNW 22:15:42 68° W 22:16:31 55° SSW
Cosmos 2360 Rocket 2.2 22:15:49 11° SSW 22:21:18 78° WNW 22:27:00 10° NNE
H-2A R/B 3.2 22:23:59 32° NE 22:23:59 32° NE 22:27:04 10° N
USA 234 4.1 22:22:54 29° S 22:25:19 38° SW 22:31:20 10° WNW
Cosmos 1908 Rocket 4.2 22:24:04 10° NNW 22:28:14 47° W 22:28:49 44° WSW
Cosmos 2322 3.7 22:25:27 23° SSW 22:29:10 79° WNW 22:34:55 10° NNE
Meteor 1-20 Rocket 4.1 22:24:08 10° N 22:29:42 71° E 22:30:09 67° ESE
USA 245 4.4 22:30:43 48° SSW 22:32:18 68° WSW 22:37:33 10° NNW
Meteor 1-22 4.4 22:32:45 10° N 22:38:08 84° E 22:38:20 81° SE
SL-16 R/B 4.4 22:34:35 10° WSW 22:39:10 25° NW 22:43:47 10° N
SPOT 1/Viking Rocket 3.5 22:40:22 72° SW 22:40:44 76° WSW 22:46:00 10° NNW
Cosmos 1782 Rocket 4.0 22:38:01 10° NNW 22:41:59 57° WNW 22:41:59 57° WNW
Lacrosse 4 Rocket 4.0 22:42:07 10° WNW 22:44:09 13° WSW 22:45:08 12° WSW
Okean 2 Rocket 3.5 22:41:06 10° N 22:44:59 63° NNW 22:44:59 63° NNW
ATLAS 5 CENTAUR R/B 2.6 22:40:54 10° NW 22:46:52 59° WSW 22:47:45 54° SSW
Cosmos 2333 Rocket 3.7 22:52:12 24° ENE 22:52:12 24° ENE 22:54:48 10° NE
Cosmos 2333 4.3 22:51:47 65° ENE 22:51:47 65° ENE 22:56:49 10° NNE
Cosmos 1782 4.4 22:53:34 32° N 22:53:34 32° N 22:55:48 10° N
Landsat 7 4.1 22:54:27 65° NNW 22:54:27 65° NNW 22:58:33 10° NNW
ARGOS 3.9 22:52:59 40° SW 22:53:50 43° W 22:58:58 10° NNW
Milstar 3 4.4 22:50:17 10° WSW 22:53:09 17° SW 22:53:09 17° SW
Cosmos 2237 Rocket 4.1 22:59:46 18° NE 22:59:46 18° NE 23:01:31 10° NE
SeaSat 1 3.3 22:57:02 41° WSW 22:57:02 41° WSW 23:01:37 10° NW
Cosmos 2278 Rocket 3.2 22:55:15 10° N 23:00:07 34° NE 23:00:07 34° NE
Cosmos 1417 Rocket 4.4 23:03:56 79° E 23:03:56 79° E 23:10:12 10° N
Cosmos 1745 Rocket 4.3 22:59:42 10° N 23:05:30 54° ENE 23:05:30 54° ENE
Cosmos 1777 Rocket 4.4 23:01:59 10° NNW 23:06:40 59° WNW 23:06:40 59° WNW
Okean 1-7 4.5 23:07:56 34° WNW 23:07:56 34° WNW 23:11:48 10° N
Terra 2.5 23:10:04 52° NNW 23:10:04 52° NNW 23:13:41 10° NNW
NOSS 3-1 (C) 4.2 23:11:31 39° NE 23:11:31 39° NE 23:15:36 10° NE
Cosmos 1844 Rocket 2.8 23:04:05 10° NNW 23:09:04 72° NNW 23:09:04 72° NNW
Meteor 1-27 Rocket 4.2 23:12:59 51° NE 23:12:59 51° NE 23:17:15 10° NNE
USA 229 DEB 4.2 23:06:03 10° SW 23:12:45 58° NW 23:19:38 10° NNE
USA 229 4.1 23:06:07 10° SW 23:12:50 59° NW 23:19:43 10° NNE
Atlas Centaur 2 4.1 23:10:26 10° WSW 23:14:12 27° SW 23:14:12 27° SW
Cosmos 2219 Rocket 2.8 23:28:37 49° NNE 23:28:37 49° NNE 23:32:42 10° NNE
CZ-4C R/B 3.2 23:24:26 10° NNW 23:31:24 54° NE 23:32:09 52° ENE
H-2A R/B 3.5 23:33:27 28° W 23:33:27 28° W 23:37:12 10° NW
Meteor 1-11 Rocket 4.2 23:28:47 10° NNW 23:33:08 57° NNW 23:33:08 57° NNW
Cosmos 1553 Rocket 4.4 23:48:00 58° WNW 23:48:00 58° WNW 23:53:54 10° N
COSMOS 2428 4.1 23:52:07 29° W 23:53:26 32° WNW 23:58:32 10° N
